| time (UTC) | temp C | wind direction | speed KPH | gust KPH | rain 1hr cm | rain 24hr cm | rain mn cm | humidity % | barometer mb |
| 20260902014556 | 16 | 354 | 0.0 | 4.8 | 0.00 | 0.00 | 0.00 | 54 | 1012.3 |
| 20260902013056 | 16 | 345 | 0.0 | 8.0 | 0.00 | 0.00 | 0.00 | 52 | 1012.3 |
| 20260902011606 | 17 | 358 | 0.0 | 4.8 | 0.00 | 0.00 | 0.00 | 50 | 1012.3 |
| 20260902010052 | 17 | 335 | 3.2 | 8.0 | 0.00 | 0.00 | 0.00 | 48 | 1012.3 |
| 20260902004552 | 18 | 9 | 3.2 | 9.7 | 0.00 | 0.00 | 0.00 | 47 | 1012.2 |
| 20260902003051 | 18 | 283 | 0.0 | 8.0 | 0.00 | 0.00 | 0.00 | 47 | 1012.2 |
| 20260902001604 | 18 | 330 | 1.6 | 6.4 | 0.00 | 0.00 | 0.00 | 46 | 1012.2 |
| 20260902000049 | 18 | 341 | 3.2 | 9.7 | 0.00 | 0.00 | 0.00 | 45 | 1012.2 |
| 20260901234558 | 18 | 62 | 0.0 | 9.7 | 0.00 | 0.00 | 0.00 | 44 | 1012.2 |
| 20260901233059 | 18 | 352 | 3.2 | 12.9 | 0.00 | 0.00 | 0.00 | 45 | 1012.4 |
| 20260901231546 | 18 | 330 | 1.6 | 9.7 | 0.00 | 0.00 | 0.00 | 43 | 1012.4 |
| 20260901230045 | 19 | 333 | 1.6 | 6.4 | 0.00 | 0.00 | 0.00 | 41 | 1012.5 |
| 20260901224543 | 20 | 310 | 1.6 | 9.7 | 0.00 | 0.00 | 0.00 | 39 | 1012.3 |
| 20260901223043 | 20 | 107 | 3.2 | 11.3 | 0.00 | 0.00 | 0.00 | 38 | 1012.2 |
| 20260901221540 | 20 | 328 | 0.0 | 17.7 | 0.00 | 0.00 | 0.00 | 39 | 1012.3 |
| 20260901220042 | 20 | 327 | 1.6 | 11.3 | 0.00 | 0.00 | 0.00 | 41 | 1012.4 |
| 20260901214542 | 20 | 345 | 6.4 | 17.7 | 0.00 | 0.00 | 0.00 | 41 | 1012.4 |
| 20260901213052 | 20 | 345 | 6.4 | 12.9 | 0.00 | 0.00 | 0.00 | 40 | 1012.5 |
| 20260901211538 | 20 | 203 | 1.6 | 12.9 | 0.00 | 0.00 | 0.00 | 40 | 1012.4 |
| 20260901210038 | 21 | 330 | 4.8 | 17.7 | 0.00 | 0.00 | 0.00 | 39 | 1012.5 |
| 20260901204535 | 21 | 26 | 0.0 | 9.7 | 0.00 | 0.00 | 0.00 | 38 | 1012.3 |
| 20260901203051 | 21 | 59 | 1.6 | 11.3 | 0.00 | 0.00 | 0.00 | 36 | 1012.4 |
| 20260901201533 | 21 | 91 | 3.2 | 12.9 | 0.00 | 0.00 | 0.00 | 36 | 1012.5 |
| 20260901200038 | 21 | 89 | 6.4 | 19.3 | 0.00 | 0.00 | 0.00 | 38 | 1012.4 |
| 20260901194533 | 21 | 131 | 1.6 | 14.5 | 0.00 | 0.00 | 0.00 | 38 | 1012.6 |
| 20260901193030 | 21 | 235 | 0.0 | 12.9 | 0.00 | 0.00 | 0.00 | 36 | 1012.7 |
| 20260901191528 | 21 | 328 | 3.2 | 14.5 | 0.00 | 0.00 | 0.00 | 33 | 1012.6 |
| 20260901190031 | 22 | 109 | 3.2 | 9.7 | 0.00 | 0.00 | 0.00 | 34 | 1012.7 |
| 20260901184525 | 21 | 32 | 0.0 | 6.4 | 0.00 | 0.00 | 0.00 | 43 | 1012.8 |
| 20260901183019 | 20 | 78 | 1.6 | 8.0 | 0.00 | 0.00 | 0.00 | 50 | 1012.7 |
| 20260901181617 | 18 | 335 | 1.6 | 6.4 | 0.00 | 0.00 | 0.00 | 56 | 1012.7 |
| 20260901180016 | 17 | 323 | 1.6 | 9.7 | 0.00 | 0.00 | 0.00 | 57 | 1012.8 |
| 20260901174513 | 18 | 66 | 3.2 | 9.7 | 0.00 | 0.00 | 0.00 | 55 | 1012.5 |
| 20260901173010 | 18 | 83 | 1.6 | 6.4 | 0.00 | 0.00 | 0.00 | 52 | 1012.3 |
| 20260901171505 | 18 | 101 | 1.6 | 4.8 | 0.00 | 0.00 | 0.00 | 54 | 1012.2 |
| 20260901170003 | 17 | 311 | 1.6 | 8.0 | 0.00 | 0.00 | 0.00 | 57 | 1012.1 |
| 20260901164503 | 17 | 302 | 0.0 | 6.4 | 0.00 | 0.00 | 0.00 | 53 | 1012.2 |
| 20260901163102 | 17 | 114 | 1.6 | 6.4 | 0.00 | 0.00 | 0.00 | 54 | 1012.0 |
| 20260901161555 | 16 | 103 | 0.0 | 6.4 | 0.00 | 0.00 | 0.00 | 58 | 1011.7 |
| 20260901160056 | 16 | 103 | 0.0 | 1.6 | 0.00 | 0.00 | 0.00 | 62 | 1011.7 |
| 20260901154550 | 14 | 111 | 0.0 | 1.6 | 0.00 | 0.00 | 0.00 | 69 | 1011.7 |
| 20260901153047 | 13 | 307 | 0.0 | 0.0 | 0.00 | 0.00 | 0.00 | 70 | 1011.5 |
| 20260901151536 | 11 | 307 | 0.0 | 0.0 | 0.00 | 0.00 | 0.00 | 77 | 1011.3 |
| 20260901150032 | 8 | 307 | 0.0 | 0.0 | 0.00 | 0.00 | 0.00 | 83 | 1011.3 |
| 20260901144531 | 7 | 307 | 0.0 | 0.0 | 0.00 | 0.00 | 0.00 | 84 | 1011.1 |
| 20260901143029 | 6 | 307 | 0.0 | 0.0 | 0.00 | 0.00 | 0.00 | 85 | 1011.1 |
| 20260901141527 | 6 | 307 | 0.0 | 0.0 | 0.00 | 0.00 | 0.00 | 85 | 1011.0 |
| 20260901140025 | 5 | 307 | 0.0 | 0.0 | 0.00 | 0.00 | 0.00 | 85 | 1010.8 |
| 20260901134522 | 6 | 307 | 0.0 | 0.0 | 0.00 | 0.00 | 0.00 | 84 | 1010.8 |
| 20260901133020 | 6 | 307 | 0.0 | 0.0 | 0.00 | 0.00 | 0.00 | 84 | 1010.7 |
| 20260901131517 | 6 | 307 | 0.0 | 0.0 | 0.00 | 0.00 | 0.00 | 84 | 1010.6 |
| 20260901130016 | 6 | 307 | 0.0 | 0.0 | 0.00 | 0.00 | 0.00 | 84 | 1010.4 |
| 20260901124517 | 6 | 307 | 0.0 | 0.0 | 0.00 | 0.00 | 0.00 | 84 | 1010.4 |
| 20260901123021 | 6 | 307 | 0.0 | 0.0 | 0.00 | 0.00 | 0.00 | 84 | 1010.1 |
| 20260901121511 | 6 | 307 | 0.0 | 0.0 | 0.00 | 0.00 | 0.00 | 84 | 1010.1 |
| 20260901120013 | 6 | 307 | 0.0 | 0.0 | 0.00 | 0.00 | 0.00 | 84 | 1010.0 |
| 20260901114509 | 6 | 307 | 0.0 | 0.0 | 0.00 | 0.00 | 0.00 | 84 | 1010.1 |
| 20260901113007 | 7 | 307 | 0.0 | 0.0 | 0.00 | 0.00 | 0.00 | 84 | 1010.0 |
| 20260901111505 | 7 | 307 | 0.0 | 0.0 | 0.00 | 0.00 | 0.00 | 83 | 1010.0 |
| 20260901110003 | 7 | 307 | 0.0 | 0.0 | 0.00 | 0.00 | 0.00 | 83 | 1009.8 |
| 20260901104501 | 7 | 307 | 0.0 | 0.0 | 0.00 | 0.00 | 0.00 | 83 | 1010.0 |
| 20260901103059 | 7 | 307 | 0.0 | 0.0 | 0.00 | 0.00 | 0.00 | 83 | 1010.0 |
| 20260901101609 | 7 | 307 | 0.0 | 0.0 | 0.00 | 0.00 | 0.00 | 82 | 1010.1 |
| 20260901100052 | 8 | 307 | 0.0 | 0.0 | 0.00 | 0.00 | 0.00 | 82 | 1010.1 |
| 20260901094552 | 8 | 307 | 0.0 | 0.0 | 0.00 | 0.00 | 0.00 | 81 | 1010.1 |
| 20260901093050 | 8 | 307 | 0.0 | 0.0 | 0.00 | 0.00 | 0.00 | 81 | 1010.2 |
| 20260901091546 | 8 | 307 | 0.0 | 0.0 | 0.00 | 0.00 | 0.00 | 81 | 1010.2 |
| 20260901090043 | 8 | 307 | 0.0 | 0.0 | 0.00 | 0.00 | 0.00 | 80 | 1010.5 |
| 20260901084540 | 8 | 307 | 0.0 | 0.0 | 0.00 | 0.00 | 0.00 | 80 | 1010.4 |
| 20260901083039 | 8 | 307 | 0.0 | 0.0 | 0.00 | 0.00 | 0.00 | 80 | 1010.6 |
| 20260901081540 | 9 | 307 | 0.0 | 0.0 | 0.00 | 0.00 | 0.00 | 79 | 1010.5 |
| 20260901080041 | 9 | 307 | 0.0 | 0.0 | 0.00 | 0.00 | 0.00 | 79 | 1010.3 |
| 20260901074543 | 9 | 307 | 0.0 | 0.0 | 0.00 | 0.00 | 0.00 | 78 | 1010.3 |
| 20260901073037 | 10 | 307 | 0.0 | 0.0 | 0.00 | 0.00 | 0.00 | 78 | 1010.4 |
| 20260901071529 | 10 | 307 | 0.0 | 0.0 | 0.00 | 0.00 | 0.00 | 78 | 1010.2 |
| 20260901070028 | 10 | 307 | 0.0 | 0.0 | 0.00 | 0.00 | 0.00 | 78 | 1010.1 |
| 20260901064525 | 10 | 307 | 0.0 | 0.0 | 0.00 | 0.00 | 0.00 | 78 | 1010.1 |
| 20260901063024 | 10 | 307 | 0.0 | 0.0 | 0.00 | 0.00 | 0.00 | 78 | 1010.0 |
| 20260901061524 | 10 | 307 | 0.0 | 0.0 | 0.00 | 0.00 | 0.00 | 77 | 1009.9 |
| 20260901060021 | 10 | 307 | 0.0 | 0.0 | 0.00 | 0.00 | 0.00 | 77 | 1009.9 |
| 20260901054522 | 10 | 307 | 0.0 | 0.0 | 0.00 | 0.00 | 0.00 | 76 | 1009.9 |
| 20260901053021 | 11 | 307 | 0.0 | 0.0 | 0.00 | 0.00 | 0.00 | 75 | 1010.1 |
| 20260901051529 | 11 | 307 | 0.0 | 0.0 | 0.00 | 0.00 | 0.00 | 75 | 1010.1 |
| 20260901050020 | 11 | 307 | 0.0 | 0.0 | 0.00 | 0.00 | 0.00 | 73 | 1010.0 |
| 20260901044522 | 12 | 307 | 0.0 | 0.0 | 0.00 | 0.00 | 0.00 | 71 | 1010.0 |
| 20260901043018 | 12 | 307 | 0.0 | 0.0 | 0.00 | 0.00 | 0.00 | 69 | 1009.9 |
| 20260901041541 | 13 | 307 | 0.0 | 0.0 | 0.00 | 0.00 | 0.00 | 67 | 1009.7 |
| 20260901040019 | 13 | 307 | 0.0 | 0.0 | 0.00 | 0.00 | 0.00 | 66 | 1009.6 |
| 20260901034514 | 14 | 307 | 0.0 | 0.0 | 0.00 | 0.00 | 0.00 | 64 | 1009.5 |
| 20260901033016 | 15 | 307 | 0.0 | 0.0 | 0.00 | 0.00 | 0.00 | 61 | 1009.3 |
| 20260901031514 | 15 | 307 | 0.0 | 0.0 | 0.00 | 0.00 | 0.00 | 59 | 1009.1 |
| 20260901030015 | 16 | 307 | 0.0 | 0.0 | 0.00 | 0.00 | 0.00 | 56 | 1009.0 |
| 20260901024512 | 17 | 307 | 0.0 | 0.0 | 0.00 | 0.00 | 0.00 | 52 | 1008.9 |
| 20260901023014 | 18 | 307 | 0.0 | 0.0 | 0.00 | 0.00 | 0.00 | 48 | 1008.8 |
| 20260901021516 | 20 | 307 | 0.0 | 0.0 | 0.00 | 0.00 | 0.00 | 45 | 1008.8 |
| 20260901020009 | 21 | 307 | 0.0 | 0.0 | 0.00 | 0.00 | 0.00 | 43 | 1008.8 |